Pagrindinis puslapis
METAR-TAF:

METAR-TAF

Oro uostai :

Kermanšahas, Iranas

platuma: 34-16N, ilguma: 047-07E, Aukštis: 1320 m

Dabartinis oras

Ataskaita buvo paskelbta 39 minutes, ne 07:00 UTC
Vėjas 4 kt iš Rytų
Temperatūra 26°C
Drėgmė 34%
Slėgis 1019 hPa
Matomumas 10 km arba daugiau
nėra debesų žemiau 1500 m ir nėra kamuolinių lietaus debesų

METAR: OICC 010700Z 09004KT CAVOK 26/09 Q1018 A3008

Laikas: 11:09 (07:39 UTC)


TAF: trūkstamas

Orai ataskaitas ir orų prognozės (METAR, TAF).

turimą stotys yra geltonos ir raudonos taškus žemėlapyje.

Perkelti pele per norėdami pamatyti stoties vardą.

Tada spustelėkite, norėdami matyti oro stebėjimo ir prognozės.

Norėdami pakeisti žemėlapį: spustelėkite ant žalios mygtukų su juodo kryžiaus žemyn,; žalią mygtuką su brūkšneliu, jei norite nutolinti; arba žalių rodyklių gretimoms žemėlapius.


METAR-TAF: